Back to catalog

FENGYUN 1C DEB

AliveSSO
NORAD 32225·DEBRIS·🇨🇳 China

Launched May 10, 1999 from Taiyuan Satellite Launch Center

Loading…

Next Passes (next 24 hours)

TLE

FreshSource: Space-Track

Epoch: Sep 12, 2026, 09:04 UTC

1 32225U 99025CVX 26255.37836671  .00000198  00000-0  12659-3 0  9994
2 32225  99.0567 312.7599 0072449 155.4522 205.0127 14.13241423719816

Track FENGYUN 1C DEB in real time with AllMySat

Download on the App Store